(120347) Salacia
ephemeris date magn radius delta ra dec elong phase
Opposition3 Oct 202520.845.315 AU44.402 AU23h58m+26°40'155.5°0.5°
Today16 Oct 202520.845.317 AU44.426 AU23h57m+26°33'153.0°0.6°
(120347) Salacia - 2025-10-16
astro.vanbuitenen.nl


 
-1 year
-1 month
-1 day
Now
+1 day
+1 month
+1 year

The interactive orbit chart above shows the body's path through the solar system and its position at the given date. Green and blue lines are shown perpendicular to the ecliptic plane: Green if the path is above the ecliptic plane, blue if it is below. (Left-click and drag to rotate the view; Right-click and drag to move the view; Use scroll wheel to zoom in our out.)

The orbital elements of Salacia are:

            e (Eccentricity)                : 0.1023362
            a (Semimajor axis)              : 42.1755796
            i (Inclination)                 : 23.92716
            Ω (Longitude of ascending node) : 280.25300
            ω (Argument of perihelion)      : 310.11778
            M (Mean anomaly)                : 132.09258
            Epoch                           : 2025 May 05

            L (Longitude of perihelion)     : 232.92376
            B (Latitude of perihelion)      : -18.06838
            P (Orbital period in years)     : 273.90            
        

The light curve chart below shows the estimated development of the minor planet's magnitude.


The all-sky chart below shows the path of the minor planet over the same period as the light curve. The current position is marked yellow.





The following chart shows the path of the minor planet in the next few days. The field of view is optimized for (~10x50) binoculars and finderscopes. A more printer-friendly version of the same chart can be found below.




Ephemerides:
Date       Time       RA (2000)    DEC (2000)    delta   radius  elong  phase   PA    magn
2025-10-16 00:00 UT   23 57 44.0   +26 33 16    44.426   45.317  153.0    0.6   127   20.8 
2025-10-16 17:22 UT   23 57 41.0   +26 32 50    44.429   45.317  152.7    0.6   126   20.8 
2025-10-17 00:00 UT   23 57 39.8   +26 32 40    44.430   45.317  152.6    0.6   125   20.8 
2025-10-18 00:00 UT   23 57 35.6   +26 32 04    44.434   45.317  152.1    0.6   123   20.8 
2025-10-19 00:00 UT   23 57 31.5   +26 31 27    44.438   45.317  151.7    0.6   121   20.8 
2025-10-20 00:00 UT   23 57 27.4   +26 30 50    44.443   45.318  151.2    0.6   120   20.8 
2025-10-21 00:00 UT   23 57 23.3   +26 30 12    44.448   45.318  150.6    0.6   118   20.8 
2025-10-22 00:00 UT   23 57 19.3   +26 29 35    44.453   45.318  150.1    0.6   116   20.8 
2025-10-23 00:00 UT   23 57 15.4   +26 28 57    44.458   45.318  149.5    0.6   115   20.8 
2025-10-24 00:00 UT   23 57 11.5   +26 28 18    44.464   45.318  148.9    0.6   113   20.8 
2025-10-25 00:00 UT   23 57 07.6   +26 27 40    44.469   45.318  148.3    0.7   111   20.8 
2025-10-26 00:00 UT   23 57 03.8   +26 27 01    44.476   45.319  147.6    0.7   110   20.8 
2025-10-27 00:00 UT   23 57 00.1   +26 26 22    44.482   45.319  147.0    0.7   108   20.8 
2025-10-28 00:00 UT   23 56 56.4   +26 25 43    44.489   45.319  146.3    0.7   107   20.8 
2025-10-29 00:00 UT   23 56 52.8   +26 25 03    44.496   45.319  145.6    0.7   106   20.8 
2025-10-30 00:00 UT   23 56 49.2   +26 24 24    44.503   45.319  144.9    0.7   104   20.8 
2025-10-31 00:00 UT   23 56 45.7   +26 23 44    44.510   45.319  144.2    0.7   103   20.8 
2025-11-01 00:00 UT   23 56 42.2   +26 23 04    44.518   45.320  143.5    0.7   102   20.8 
2025-11-02 00:00 UT   23 56 38.8   +26 22 23    44.526   45.320  142.8    0.8   101   20.8 
2025-11-03 00:00 UT   23 56 35.5   +26 21 43    44.534   45.320  142.0    0.8   100   20.8 
2025-11-04 00:00 UT   23 56 32.2   +26 21 02    44.542   45.320  141.3    0.8    99   20.8 
2025-11-05 00:00 UT   23 56 29.0   +26 20 22    44.551   45.320  140.5    0.8    97   20.8 
2025-11-06 00:00 UT   23 56 25.9   +26 19 41    44.560   45.321  139.7    0.8    96   20.8 
2025-11-07 00:00 UT   23 56 22.8   +26 19 00    44.569   45.321  138.9    0.8    95   20.8 
2025-11-08 00:00 UT   23 56 19.9   +26 18 19    44.578   45.321  138.1    0.8    94   20.8 
2025-11-09 00:00 UT   23 56 16.9   +26 17 39    44.588   45.321  137.3    0.8    94   20.8 
2025-11-10 00:00 UT   23 56 14.1   +26 16 58    44.597   45.321  136.5    0.9    93   20.8 
2025-11-11 00:00 UT   23 56 11.3   +26 16 16    44.607   45.321  135.7    0.9    92   20.8 
2025-11-12 00:00 UT   23 56 08.6   +26 15 35    44.618   45.322  134.9    0.9    91   20.8 
2025-11-13 00:00 UT   23 56 06.0   +26 14 54    44.628   45.322  134.1    0.9    90   20.8 
2025-11-14 00:00 UT   23 56 03.4   +26 14 13    44.639   45.322  133.2    0.9    89   20.8 
2025-11-15 00:00 UT   23 56 00.9   +26 13 32    44.649   45.322  132.4    0.9    88   20.8 


    Terminology:
            
    delta:  distance between minor planet and earth in AU
    radius: distance between minor planet and sun in AU
    magn:   magnitude (brightness) estimate    
    ra:     right ascension in hours (24h = 360deg)
    dec:    declination in degrees
    elong:  elongation in degrees (angle sun-earth-minor planet)    
    phase:  phase angle in degrees (angle sun-minor planet-earth)        
    AU:     Astronomical Unit (mean distance between earth and sun: 149597870.7 km
    

Orbital elements provided by the MPC (Minor Planet Center).
Calculations by a modified version of AAPlus, a C# implementation of the AA+ project by PJ Naughter from the algorithms presented in the book "Astronomical Algorithms" by Jean Meeus.
NGC2000 dso catalog and star labels from VizieR as provided by the Strasbourg astronomical Data Center.
Tycho2 catalog from the ESO archive.